EW3683 Weather Reports


time (UTC)temp
C
wind
direction
speed
KPH
gust
KPH
rain 1hr
cm
rain 24hr
cm
rain mn
cm
humidity
%
barometer
mb
20260505121503 11 159 0.0 1.6 0.03 0.03 0.03 95 1014.7
20260505120003 11 159 0.0 1.6 0.03 0.03 0.03 94 1014.7
20260505114502 11 159 0.0 0.0 0.00 0.00 0.00 94 1014.7
20260505113001 11 159 0.0 0.0 0.00 0.00 0.00 94 1014.6
20260505111601 11 159 0.0 1.6 0.00 0.00 0.00 94 1014.6
20260505110106 11 159 0.0 0.0 0.00 0.00 0.00 94 1014.6
20260505101602 11 159 0.0 0.0 0.00 0.00 0.00 92 1014.4
20260505100056 11 159 0.0 0.0 0.00 0.00 0.00 91 1014.3
20260505094556 11 159 0.0 0.0 0.00 0.00 0.00 90 1014.2
20260505093052 11 159 0.0 0.0 0.00 0.00 0.00 89 1014.0
20260505091557 11 159 0.0 0.0 0.00 0.00 0.00 89 1014.0
20260505090056 11 159 0.0 1.6 0.00 0.00 0.00 89 1013.9
20260505084550 11 165 0.0 1.6 0.00 0.00 0.00 90 1013.9
20260505083049 11 165 0.0 0.0 0.00 0.00 0.00 90 1013.8
20260505081556 11 165 0.0 1.6 0.00 0.00 0.00 91 1013.6
20260505080046 11 168 0.0 0.0 0.00 0.00 0.00 92 1013.6
20260505074554 11 168 0.0 0.0 0.00 0.00 0.00 91 1013.6
20260505073036 11 168 0.0 0.0 0.00 0.00 0.00 91 1013.4
20260505071534 11 168 0.0 0.0 0.00 0.00 0.00 90 1013.3
20260505070033 11 168 0.0 0.0 0.00 0.00 0.00 90 1013.2
20260505064534 11 168 0.0 3.2 0.00 0.00 0.00 89 1013.1
20260505063038 11 167 0.0 1.6 0.00 0.00 0.00 88 1013.0
20260505061533 12 13 0.0 1.6 0.00 0.00 0.00 88 1012.8
20260505060027 12 13 0.0 0.0 0.00 0.00 0.00 87 1012.8
20260505054529 12 13 0.0 0.0 0.00 0.00 0.00 87 1012.6
20260505053024 12 13 0.0 1.6 0.00 0.00 0.00 87 1012.5
20260505051523 12 40 0.0 3.2 0.00 0.00 0.00 86 1012.2
20260505041520 15 109 0.0 1.6 0.00 0.00 0.00 78 1011.8
20260505040019 15 123 0.0 1.6 0.00 0.00 0.00 77 1011.4
20260505034519 16 18 0.0 1.6 0.00 0.00 0.00 75 1011.3
20260505033029 17 19 0.0 1.6 0.00 0.00 0.00 73 1011.0
20260505031517 17 34 0.0 1.6 0.00 0.00 0.00 72 1010.8
20260505030016 18 34 0.0 1.6 0.00 0.00 0.00 70 1010.5
20260505024535 18 5 0.0 3.2 0.00 0.00 0.00 70 1010.4
20260505023016 19 14 0.0 3.2 0.00 0.00 0.00 70 1010.2
20260505021531 20 42 0.0 3.2 0.00 0.00 0.00 66 1010.2
20260505020014 21 21 0.0 3.2 0.00 0.00 0.00 66 1010.0
20260505014518 21 95 0.0 3.2 0.00 0.00 0.00 65 1010.0
20260505013014 21 259 0.0 1.6 0.00 0.00 0.00 63 1010.0
20260505011513 22 340 0.0 4.8 0.00 0.00 0.00 60 1009.9
20260505010012 22 110 0.0 6.4 0.00 0.00 0.00 60 1009.8
20260505004521 23 355 0.0 4.8 0.00 0.00 0.00 58 1009.8
20260505003011 23 96 0.0 6.4 0.00 0.00 0.00 57 1009.7
20260505001511 23 113 1.6 4.8 0.00 0.00 0.00 56 1009.6
20260505000011 24 78 0.0 3.2 0.00 0.00 0.00 54 1009.6
20260504234509 24 223 0.0 3.2 0.00 0.00 0.00 53 1009.7
20260504233008 25 35 1.6 6.4 0.00 0.00 0.00 48 1009.8
20260504231507 25 321 0.0 3.2 0.00 0.00 0.00 50 1009.9
20260504230006 25 317 0.0 4.8 0.00 0.00 0.00 49 1010.0
20260504224507 25 50 1.6 6.4 0.00 0.00 0.00 51 1010.3
20260504223002 24 327 1.6 6.4 0.00 0.00 0.00 51 1010.4
20260504221501 24 199 0.0 4.8 0.00 0.00 0.00 51 1010.5
20260504220135 24 161 0.0 4.8 0.00 0.00 0.00 50 1010.8
20260504214557 23 335 0.0 4.8 0.00 0.00 0.00 49 1010.9
20260504213117 23 12 0.0 6.4 0.00 0.00 0.00 52 1011.0
20260504211554 22 5 0.0 8.0 0.00 0.00 0.00 53 1011.0
20260504210048 22 111 0.0 4.8 0.00 0.00 0.00 56 1011.3
20260504204600 22 55 0.0 4.8 0.00 0.00 0.00 54 1011.4
20260504203043 21 11 1.6 4.8 0.00 0.00 0.00 58 1011.5
20260504201539 21 169 0.0 9.7 0.00 0.00 0.00 60 1011.7
20260504200043 20 312 1.6 8.0 0.00 0.00 0.00 59 1011.7
20260504194540 20 130 0.0 6.4 0.00 0.00 0.00 61 1011.8
20260504193033 20 35 0.0 6.4 0.00 0.00 0.00 63 1011.9
20260504191536 19 28 0.0 8.0 0.00 0.00 0.00 64 1011.9
20260504190036 19 15 3.2 8.0 0.00 0.00 0.00 64 1012.0
20260504184533 18 80 0.0 8.0 0.00 0.00 0.00 66 1012.1
20260504183023 18 343 1.6 6.4 0.00 0.00 0.00 68 1012.2
20260504181523 17 38 1.6 6.4 0.00 0.00 0.00 69 1012.3
20260504180018 17 11 1.6 6.4 0.00 0.00 0.00 71 1012.1
20260504174514 16 9 3.2 8.0 0.00 0.00 0.00 75 1012.1
20260504173011 15 13 0.0 4.8 0.00 0.00 0.00 78 1012.2
20260504171507 15 88 0.0 3.2 0.00 0.00 0.00 79 1012.1